Temperature
26 27 27 28 28 28 28 28 28 28 28 28 27 27 27 26 26 26 25 24 23 22 21 20 20 19 19 19 19 19 19 18 18 18 17 17 17 17 17 17 17 17 17 17
26 27 27 28 27 27 27 27 27 28 27 27 27 27 27 26 25 25 24 24 23 22 21 20 19 19 19 19 19 19 19 18 18 18 18 17 17 17 17 17 17 17 17 17
26 27 27 27 26 26 27 27 27 27 27 27 27 27 27 26 25 24 24 23 23 22 21 20 19 19 19 19 18 18 18 18 18 18 17 17 17 17 16 16 16 16 16 16
26 27 26 26 26 26 26 27 27 27 26 27 27 27 27 27 26 25 24 23 23 22 21 20 20 19 19 19 18 18 18 18 18 17 17 17 17 17 16 16 16 16 16 16
26 26 26 26 26 26 27 27 27 26 26 27 27 26 27 27 26 25 24 23 22 22 21 20 20 19 19 18 18 18 18 18 18 17 17 17 16 16 16 16 16 16 16 16
26 26 26 26 26 26 26 26 26 26 27 26 27 26 26 27 26 26 25 23 22 21 21 20 19 19 18 18 18 17 17 17 17 17 17 17 16 16 16 16 16 16 15 15
25 26 26 26 26 26 26 26 25 25 26 26 27 26 26 26 26 25 24 23 22 21 21 20 19 19 18 18 17 17 17 17 17 17 17 16 16 16 16 16 16 16 15 15
25 25 26 25 25 25 26 26 25 25 25 26 26 25 26 26 25 24 23 22 21 21 20 20 19 19 18 18 17 17 16 16 16 16 16 16 16 16 16 16 16 15 15 15
25 25 25 25 25 26 25 26 26 25 26 25 25 25 25 25 25 24 23 22 21 20 20 19 19 18 18 17 17 16 16 16 16 16 16 16 16 16 16 16 15 15 15 15
24 24 25 25 25 25 26 26 25 25 24 24 25 25 25 25 24 24 23 22 21 20 19 18 18 17 17 17 16 16 16 16 16 16 16 16 15 15 15 15 15 15 15 15
24 23 24 24 24 25 24 24 24 25 25 24 24 24 25 24 24 23 23 21 20 19 18 18 17 17 16 16 16 16 16 15 15 15 15 15 15 15 15 15 15 15 15 15
23 23 23 24 24 24 24 24 24 23 23 23 24 24 24 23 23 22 21 20 19 18 18 17 17 16 16 16 15 15 15 15 15 15 15 15 15 15 15 15 15 15 15 14
22 21 21 23 23 23 23 23 23 23 23 23 23 23 23 22 21 20 20 19 18 17 17 17 16 16 16 15 15 15 15 15 15 15 15 15 15 15 15 15 14 14 14 14
20 21 21 22 23 23 22 23 23 23 23 22 23 23 23 22 21 20 19 18 17 17 16 16 16 15 15 15 15 14 14 14 14 14 15 14 15 14 14 14 14 14 14 14
20 21 21 22 22 22 22 22 22 22 22 22 22 22 21 21 20 19 18 17 17 16 16 16 15 14 14 14 14 14 14 14 14 14 14 14 14 14 14 14 14 14 14 14
20 20 20 20 21 21 21 21 21 21 21 21 21 21 21 20 19 18 18 17 16 16 15 15 15 14 14 14 13 13 13 13 14 14 14 14 14 14 13 14 14 13 13 13
20 19 19 20 21 21 20 20 21 20 21 21 20 20 20 19 18 18 17 16 16 15 15 14 14 14 13 13 13 13 13 13 13 13 13 13 13 13 13 13 13 13 13 13
18 19 19 20 19 18 20 20 20 19 20 20 19 19 18 18 17 16 16 16 15 14 14 14 13 13 13 13 13 13 13 13 13 13 13 13 13 13 13 13 13 13 13 13
18 18 19 19 19 19 19 19 19 18 18 18 18 18 17 16 16 16 15 14 14 14 13 13 13 13 13 12 12 12 12 12 12 12 12 12 12 12 12 12 12 13 13 12
18 18 18 19 18 18 18 18 18 18 17 17 17 17 16 16 17 16 14 14 14 13 13 13 12 12 12 12 12 12 12 12 12 12 12 12 12 12 12 12 12 12 12 12
18 17 18 18 18 18 18 17 17 17 16 16 15 15 15 15 15 14 13 13 13 13 12 12 12 12 12 12 12 12 12 12 12 12 12 12 12 12 12 12 12 12 12 12
18 18 17 18 17 17 16 17 16 16 15 14 14 14 14 14 13 13 13 12 12 12 12 12 11 11 11 12 12 12 12 11 11 11 11 11 11 11 12 11 11 11 11 12
17 17 17 17 17 16 15 15 14 14 14 14 13 13 13 13 13 13 12 12 12 12 11 11 11 11 11 11 11 11 11 11 11 11 11 11 11 11 11 11 11 11 11 12
17 16 16 16 16 15 15 14 14 13 13 13 13 13 13 12 12 12 12 12 11 11 11 11 11 11 11 11 10 11 11 10 10 10 10 10 10 11 11 11 11 11 11 11
16 16 16 15 16 15 14 14 13 13 13 12 12 12 12 12 12 12 11 11 11 11 10 10 10 10 10 10 10 10 10 10 10 10 10 10 10 10 10 11 11 11 11 11
15 15 15 15 15 14 14 13 13 13 12 12 12 12 12 12 11 11 11 11 10 10 10 10 10 10 10 10 10 10 10 10 10 9 10 10 10 10 10 10 10 10 10 11
Wind_Speed
8 9 10 9 9 8 7 8 8 6 3 6 8 7 6 5 5 6 6 6 6 6 5 5 6 7 8 8 8 9 10 9 8 7 7 6 5 5 4 3 3 3 3 3
9 11 9 7 7 9 10 10 9 7 4 6 8 9 7 6 6 5 6 6 6 6 5 5 5 6 7 8 8 9 9 9 9 7 6 5 5 5 4 3 3 3 3 3
11 4 6 8 9 10 11 10 9 8 6 8 9 10 8 6 6 6 6 6 6 5 5 5 5 6 6 7 8 7 8 8 8 8 7 6 5 4 4 4 3 3 3 3
9 6 6 9 10 10 11 8 9 9 10 9 8 10 7 7 7 7 7 6 5 5 5 5 6 5 5 6 7 7 7 8 8 8 8 8 7 6 5 4 4 4 3 3
7 7 9 10 9 10 9 6 9 11 12 12 11 11 7 7 7 7 6 5 5 5 5 4 5 5 5 5 6 7 7 7 8 8 8 8 7 6 5 5 4 4 4 4
7 5 6 7 8 8 7 7 9 11 12 14 12 11 9 6 6 5 5 5 4 4 4 4 4 4 5 5 5 6 7 7 7 8 8 8 7 6 6 6 5 5 4 4
10 9 7 6 8 9 9 9 8 10 11 12 7 9 8 3 3 4 4 5 4 4 4 4 4 4 4 5 5 5 6 6 7 8 8 8 8 8 7 7 6 5 4 4
9 9 9 7 9 8 11 12 10 10 11 9 7 9 5 3 3 3 3 3 3 3 3 3 4 4 4 5 5 5 5 6 6 7 7 7 8 7 6 6 5 5 4 4
6 6 4 5 7 9 10 12 12 13 15 13 9 7 6 5 5 4 4 3 3 2 2 2 3 4 4 4 5 5 5 5 5 6 7 7 7 6 5 6 6 5 4 4
4 6 5 5 7 8 10 9 9 12 12 13 12 11 8 7 6 5 4 4 2 2 2 2 2 3 3 4 5 5 5 5 5 5 5 6 7 6 6 5 5 5 5 4
5 6 6 7 8 9 8 10 10 11 11 12 12 7 1 1 2 3 3 2 2 2 2 2 2 2 3 4 5 5 5 5 5 5 5 5 7 7 8 7 6 6 5 5
4 5 8 8 5 5 8 10 10 10 11 12 12 7 4 2 2 3 3 2 1 1 2 2 3 3 3 3 4 4 4 4 4 4 5 6 6 7 7 7 7 6 6 6
2 4 7 8 9 8 8 8 9 10 10 12 13 7 3 2 3 3 3 2 1 1 2 3 2 2 2 2 3 3 3 3 3 4 4 5 5 6 7 7 7 6 6 7
3 6 9 10 7 5 8 9 10 12 11 13 13 11 5 5 5 5 3 2 1 1 2 2 2 1 1 1 2 2 2 3 3 4 4 4 5 5 6 7 7 7 7 7
4 7 8 9 8 8 10 10 10 12 13 14 12 10 8 7 6 5 3 2 1 2 2 2 2 1 1 1 1 2 2 2 2 3 4 4 4 5 5 6 7 7 7 7
4 6 7 9 8 8 9 9 10 10 10 11 11 10 7 6 5 5 4 3 2 3 2 2 2 2 2 2 2 2 2 2 2 3 4 3 4 4 5 6 7 7 7 6
4 6 8 9 7 9 10 8 8 8 8 8 9 7 6 7 6 6 5 4 3 3 2 2 2 2 2 2 3 3 2 2 2 3 3 3 4 4 4 5 6 7 7 7
6 7 6 7 6 9 3 1 2 5 6 6 6 7 6 6 6 5 4 3 3 3 3 2 2 2 2 3 3 3 3 3 3 3 3 4 4 4 4 5 6 6 6 6
6 6 6 6 8 7 3 1 3 5 6 4 5 5 6 5 5 3 3 2 2 3 2 3 3 2 2 3 3 3 4 4 4 4 4 4 3 3 4 4 4 5 6 6
4 6 7 7 8 6 0 2 3 5 5 2 4 6 7 6 6 2 4 4 3 2 2 3 2 1 1 2 3 4 4 4 4 4 4 4 4 4 4 4 4 4 5 6
5 5 8 9 8 4 2 2 2 4 3 5 6 6 6 6 6 5 4 4 4 3 3 3 2 1 1 2 3 3 3 4 4 4 4 4 4 4 5 4 4 4 5 5
4 4 5 6 7 3 4 1 2 4 4 5 5 6 6 5 4 5 5 4 3 2 2 2 2 1 1 1 2 2 3 3 3 3 3 3 3 4 4 4 4 4 5 5
3 3 3 3 2 3 2 2 3 4 4 4 5 5 5 4 5 5 5 4 3 3 3 2 2 2 1 2 2 2 2 3 3 3 3 3 3 4 4 4 4 4 5 5
2 2 3 3 2 2 2 3 3 3 4 4 4 5 4 5 6 6 5 4 4 3 3 3 2 2 1 2 2 2 2 2 3 3 3 3 3 4 4 4 4 4 4 4
3 2 3 4 4 3 2 3 4 3 3 4 4 4 4 5 5 5 5 4 4 4 4 3 3 2 2 1 2 2 1 1 2 3 3 3 3 3 4 4 3 4 3 2
3 4 5 4 3 4 4 4 4 4 3 4 4 4 5 5 5 5 5 4 4 4 4 3 3 3 2 2 2 2 1 2 3 3 4 3 3 3 3 3 2 1 2 2
Wind_Direction
196 214 215 218 229 257 263 255 248 245 237 254 251 254 249 242 243 227 212 203 198 197 186 179 179 178 178 176 176 182 184 178 179 181 182 181 180 175 169 160 150 156 166 167
203 218 226 231 227 240 247 248 246 240 227 262 258 258 249 232 230 228 220 208 204 199 183 175 176 177 183 180 182 184 186 182 186 183 184 184 182 175 169 163 146 165 171 180
221 217 215 223 223 233 240 250 256 258 257 242 256 250 225 216 215 214 217 218 208 202 197 189 187 186 188 188 187 188 190 185 188 184 182 176 176 180 175 176 171 178 173 169
228 220 214 222 229 239 244 247 258 255 255 252 239 262 220 206 210 212 212 212 207 202 200 196 192 190 193 193 187 185 185 187 186 188 190 187 185 186 186 184 175 173 173 173
211 213 222 231 236 240 255 260 255 254 257 263 242 254 242 198 220 215 210 208 214 208 202 193 194 192 190 188 186 181 179 184 187 191 191 194 196 190 182 180 171 180 172 181
233 217 240 246 242 235 242 242 241 244 249 250 245 250 255 224 229 226 209 203 209 209 198 192 192 185 180 178 178 175 176 182 184 190 193 196 195 195 186 183 181 189 181 178
220 218 216 230 228 209 225 241 241 236 234 246 231 246 255 235 232 241 222 212 204 206 206 197 185 179 181 179 179 172 173 181 184 187 192 194 196 197 196 194 189 195 188 183
228 220 203 212 232 232 226 238 251 262 263 260 225 243 246 184 212 235 233 222 208 206 208 208 194 183 182 181 179 174 174 181 185 187 190 195 198 199 199 202 203 197 199 189
250 235 190 215 235 245 237 238 254 264 269 267 254 247 234 212 218 230 232 224 209 210 209 204 184 180 178 181 182 177 175 176 183 187 190 194 200 204 201 199 207 204 200 196
265 256 231 219 230 228 253 251 244 248 260 262 254 248 248 221 229 234 240 240 222 213 194 178 168 166 173 176 176 174 176 179 183 188 195 192 194 194 202 211 205 209 207 204
255 251 236 224 233 238 222 229 240 251 257 264 266 258 344 276 286 277 269 264 236 217 189 172 163 158 164 170 172 171 175 182 187 194 201 197 198 197 199 206 209 206 208 207
237 258 258 245 239 258 248 246 240 247 251 253 265 265 71 50 357 328 312 306 287 205 173 158 150 148 157 167 177 175 178 186 195 200 201 198 203 205 204 207 210 209 209 212
214 240 253 237 214 210 231 236 242 249 258 257 258 255 104 41 342 337 318 306 12 156 160 150 142 147 167 181 185 183 191 195 197 200 203 205 210 211 210 211 212 213 214 216
255 248 258 269 281 265 243 241 243 249 253 258 259 268 290 311 317 325 319 294 241 193 182 177 172 154 140 172 195 195 208 209 206 204 208 216 219 219 216 214 214 216 216 220
248 252 254 267 275 268 262 256 252 251 259 263 270 278 295 309 315 316 307 282 255 253 231 216 207 177 168 182 191 203 223 222 214 210 214 222 225 225 220 214 212 213 213 219
243 261 261 257 254 256 256 256 253 254 263 265 272 277 299 315 315 304 284 266 256 262 261 252 234 206 205 208 213 217 224 226 230 225 226 226 228 227 222 215 211 212 213 217
240 245 258 256 254 257 250 249 250 255 263 268 274 291 312 308 307 305 291 274 266 263 264 265 267 242 238 236 229 220 212 209 229 242 243 231 225 223 223 219 209 207 209 210
247 251 253 256 249 250 266 61 280 272 273 282 286 300 308 313 316 313 299 281 277 272 273 279 270 245 237 237 230 225 207 199 214 227 237 242 233 221 216 217 214 210 210 212
234 242 252 252 253 253 218 258 293 277 273 308 306 311 314 312 301 309 352 325 303 288 289 287 273 245 224 227 221 215 207 205 212 224 234 236 234 225 218 221 222 215 208 210
197 229 245 245 258 265 296 38 333 281 259 9 327 315 313 305 288 337 6 345 335 333 317 298 278 243 223 231 218 209 206 205 218 229 233 230 228 227 226 227 228 224 213 211
211 220 236 249 255 260 21 6 280 256 331 359 338 324 310 308 318 335 341 344 349 350 326 310 281 258 235 225 209 207 212 212 221 227 226 226 226 228 225 222 222 223 217 210
253 245 236 250 253 259 42 336 307 333 340 332 329 327 325 326 329 330 337 344 339 335 324 311 291 289 282 244 224 221 229 223 216 217 224 229 229 234 222 216 218 218 211 203
256 294 290 280 292 15 17 338 331 322 317 324 325 329 326 320 320 325 326 327 323 326 329 312 299 304 301 273 253 244 238 224 215 222 226 227 232 231 223 217 219 221 214 216
231 257 257 254 256 304 318 325 333 325 321 327 332 330 325 322 323 321 323 324 322 322 314 303 293 298 305 301 292 274 246 222 218 234 241 238 237 231 218 221 224 230 231 228
290 258 255 255 264 272 284 316 325 326 329 333 333 333 328 325 324 324 321 319 312 306 299 290 282 288 287 291 301 298 273 228 226 233 237 238 239 238 228 225 231 240 245 247
263 262 265 283 301 293 295 304 311 308 313 318 319 324 325 323 320 320 318 312 302 295 295 285 277 272 266 262 283 288 266 229 223 225 232 238 233 230 230 230 228 153 217 153
Height
1505 1502 1500 1498 1498 1498 1498 1499 1500 1499 1499 1501 1501 1500 1500 1504 1505 1505 1506 1509 1511 1513 1516 1517 1518 1520 1521 1522 1524 1525 1528 1529 1531 1533 1534 1536 1538 1539 1540 1541 1541 1542 1543 1544
1501 1500 1497 1497 1499 1500 1499 1501 1500 1498 1499 1501 1499 1498 1496 1500 1502 1503 1505 1507 1509 1511 1513 1515 1516 1517 1518 1519 1521 1523 1525 1527 1529 1531 1533 1534 1536 1538 1539 1540 1540 1541 1542 1542
1496 1495 1497 1499 1500 1501 1499 1500 1498 1499 1498 1498 1499 1497 1494 1496 1499 1502 1503 1505 1507 1509 1511 1513 1514 1515 1516 1517 1519 1521 1523 1525 1527 1529 1531 1533 1535 1536 1538 1538 1539 1539 1540 1541
1495 1495 1498 1498 1498 1498 1499 1495 1497 1498 1500 1495 1496 1498 1490 1490 1495 1498 1500 1502 1504 1507 1509 1511 1512 1513 1514 1515 1517 1518 1520 1522 1524 1527 1529 1531 1532 1534 1535 1537 1538 1538 1539 1540
1493 1494 1496 1497 1495 1496 1495 1494 1495 1496 1496 1497 1492 1497 1488 1487 1492 1494 1497 1500 1502 1505 1506 1508 1510 1511 1512 1514 1515 1517 1518 1520 1522 1524 1526 1529 1531 1533 1534 1535 1536 1537 1538 1539
1491 1494 1494 1493 1494 1495 1494 1496 1495 1495 1493 1501 1489 1494 1491 1484 1488 1490 1494 1498 1500 1502 1504 1506 1508 1510 1511 1512 1513 1515 1516 1517 1519 1521 1524 1526 1528 1530 1532 1533 1534 1536 1537 1538
1492 1491 1493 1494 1494 1494 1494 1498 1502 1502 1499 1493 1483 1491 1489 1483 1486 1489 1492 1495 1498 1501 1502 1504 1505 1507 1508 1509 1511 1512 1513 1515 1517 1519 1521 1523 1526 1528 1530 1531 1533 1534 1536 1536
1492 1491 1488 1491 1491 1491 1491 1493 1502 1506 1497 1485 1484 1490 1483 1483 1488 1490 1492 1494 1497 1499 1500 1502 1503 1505 1506 1507 1509 1510 1511 1513 1514 1516 1518 1521 1523 1525 1528 1529 1531 1532 1534 1534
1488 1489 1487 1489 1490 1489 1489 1488 1484 1491 1488 1491 1485 1482 1482 1483 1486 1489 1490 1493 1495 1497 1499 1500 1501 1503 1504 1505 1507 1508 1509 1511 1512 1514 1516 1517 1520 1522 1525 1527 1529 1530 1531 1532
1489 1494 1488 1488 1489 1488 1486 1484 1487 1490 1499 1497 1487 1485 1481 1481 1483 1485 1488 1491 1493 1495 1497 1498 1499 1501 1502 1504 1505 1506 1508 1509 1510 1512 1513 1515 1517 1519 1522 1525 1526 1527 1528 1529
1491 1495 1490 1488 1489 1485 1488 1488 1487 1485 1486 1494 1493 1487 1475 1479 1482 1484 1487 1490 1492 1494 1495 1496 1498 1499 1501 1502 1503 1504 1506 1507 1508 1510 1511 1513 1515 1517 1518 1521 1523 1524 1525 1526
1493 1492 1491 1486 1484 1485 1484 1484 1486 1493 1492 1488 1488 1487 1479 1482 1484 1486 1488 1490 1491 1493 1494 1495 1497 1498 1499 1500 1502 1503 1504 1505 1506 1508 1508 1510 1512 1514 1516 1517 1519 1521 1522 1523
1495 1497 1498 1489 1488 1487 1486 1484 1484 1485 1487 1486 1488 1486 1479 1483 1486 1488 1489 1490 1491 1492 1493 1494 1496 1497 1498 1499 1500 1501 1502 1503 1504 1505 1506 1508 1509 1511 1513 1514 1516 1518 1519 1520
1497 1495 1495 1493 1484 1482 1485 1485 1484 1485 1486 1485 1482 1480 1479 1482 1484 1487 1488 1490 1491 1492 1492 1493 1494 1495 1496 1497 1498 1499 1500 1501 1502 1503 1505 1506 1507 1509 1510 1511 1513 1514 1516 1517
1495 1493 1490 1487 1484 1484 1484 1484 1484 1484 1482 1483 1480 1480 1481 1483 1485 1487 1488 1489 1490 1491 1492 1492 1493 1494 1494 1495 1496 1497 1498 1499 1499 1500 1502 1503 1504 1506 1507 1508 1509 1511 1512 1514
1495 1493 1490 1489 1484 1483 1485 1484 1483 1483 1483 1482 1481 1482 1482 1485 1486 1487 1487 1488 1489 1490 1491 1491 1492 1492 1493 1493 1494 1495 1495 1496 1497 1498 1499 1500 1501 1502 1504 1505 1506 1508 1509 1511
1491 1494 1493 1488 1483 1484 1486 1482 1482 1483 1481 1482 1483 1483 1484 1485 1486 1486 1487 1487 1488 1488 1489 1489 1489 1490 1490 1491 1492 1492 1493 1494 1495 1495 1496 1497 1498 1499 1500 1502 1503 1504 1506 1507
1494 1493 1489 1485 1488 1495 1484 1480 1482 1483 1483 1483 1484 1484 1486 1487 1487 1486 1486 1486 1486 1487 1487 1487 1487 1487 1488 1488 1489 1489 1490 1491 1492 1493 1494 1495 1495 1496 1496 1498 1499 1501 1502 1503
1492 1492 1488 1485 1486 1484 1484 1483 1484 1485 1485 1485 1486 1486 1487 1486 1485 1484 1485 1485 1486 1486 1485 1485 1485 1484 1484 1485 1485 1486 1487 1488 1489 1490 1491 1492 1492 1493 1493 1494 1496 1497 1499 1500
1491 1491 1488 1486 1489 1489 1485 1485 1486 1487 1486 1487 1488 1487 1486 1485 1482 1483 1485 1485 1484 1484 1484 1483 1482 1482 1482 1482 1482 1483 1484 1485 1486 1487 1488 1489 1490 1490 1491 1492 1493 1494 1495 1497
1488 1489 1488 1485 1488 1484 1486 1487 1487 1490 1489 1489 1489 1488 1487 1486 1486 1487 1485 1484 1483 1482 1482 1482 1481 1480 1479 1479 1480 1480 1481 1482 1483 1485 1486 1486 1487 1488 1489 1489 1490 1491 1492 1493
1485 1484 1486 1485 1487 1489 1488 1487 1488 1490 1491 1490 1489 1489 1487 1486 1486 1485 1484 1483 1482 1481 1481 1480 1479 1478 1477 1477 1477 1477 1478 1479 1480 1481 1482 1483 1484 1485 1486 1487 1487 1488 1489 1490
1486 1486 1484 1487 1489 1490 1491 1491 1492 1491 1491 1490 1489 1488 1487 1486 1485 1484 1483 1482 1481 1480 1479 1479 1478 1476 1475 1475 1475 1474 1475 1476 1477 1478 1479 1480 1480 1481 1482 1483 1484 1485 1486 1488
1487 1490 1488 1488 1488 1490 1491 1491 1491 1491 1490 1490 1489 1488 1487 1486 1484 1483 1482 1481 1480 1479 1478 1477 1476 1475 1474 1474 1473 1473 1473 1474 1474 1475 1476 1477 1477 1478 1479 1480 1481 1483 1484 1485
1489 1489 1488 1488 1489 1490 1490 1491 1491 1490 1490 1489 1488 1487 1486 1485 1483 1482 1481 1480 1479 1478 1477 1476 1475 1474 1473 1473 1472 1472 1472 1472 1473 1473 1474 1474 1475 1475 1476 1477 1479 1480 1481 1482
1490 1490 1489 1488 1490 1490 1491 1491 1490 1489 1489 1488 1487 1486 1485 1484 1483 1482 1481 1480 1478 1477 1476 1474 1473 1472 1472 1471 1471 1470 1470 1471 1471 1471 1472 1472 1473 1473 1474 1475 1476 1476 1477 1478